TimeMST,TemperatureF,Dew PointF,Humidity,Sea Level PressureIn,VisibilityMPH,Wind Direction,Wind SpeedMPH,Gust SpeedMPH,PrecipitationIn,Events,Conditions,WindDirDegrees,DateUTC
12:55 AM,25.0,23.0,92,29.98,10.0,NNE,3.5,-,N/A,,Overcast,20,2013-02-21 07:55:00
1:55 AM,24.1,21.9,91,29.99,10.0,Calm,Calm,-,N/A,,Overcast,0,2013-02-21 08:55:00
2:55 AM,21.9,19.9,92,30.00,10.0,Calm,Calm,-,N/A,,Overcast,0,2013-02-21 09:55:00
3:55 AM,21.9,19.9,92,30.00,10.0,Calm,Calm,-,N/A,,Scattered Clouds,0,2013-02-21 10:55:00
4:55 AM,21.9,19.9,92,30.01,10.0,Calm,Calm,-,N/A,,Overcast,0,2013-02-21 11:55:00
5:55 AM,23.0,21.0,92,30.03,10.0,Calm,Calm,-,N/A,,Overcast,0,2013-02-21 12:55:00
6:55 AM,24.1,21.9,91,30.03,10.0,Calm,Calm,-,N/A,,Overcast,0,2013-02-21 13:55:00
7:55 AM,25.0,21.9,88,30.04,10.0,Calm,Calm,-,N/A,,Overcast,0,2013-02-21 14:55:00
8:55 AM,27.0,23.0,85,30.04,10.0,South,4.6,-,N/A,,Overcast,180,2013-02-21 15:55:00
9:55 AM,30.9,23.0,72,30.04,10.0,SSE,4.6,-,N/A,,Scattered Clouds,150,2013-02-21 16:55:00
10:55 AM,33.1,21.0,61,30.02,10.0,SSE,8.1,-,N/A,,Overcast,150,2013-02-21 17:55:00
11:55 AM,32.0,19.9,61,30.02,10.0,South,11.5,-,N/A,,Overcast,170,2013-02-21 18:55:00
12:55 PM,33.1,21.0,61,30.01,10.0,South,9.2,-,N/A,,Overcast,170,2013-02-21 19:55:00
1:55 PM,34.0,21.0,59,29.98,10.0,SSW,12.7,-,N/A,,Overcast,210,2013-02-21 20:55:00
2:55 PM,35.1,21.0,57,29.96,10.0,SSW,6.9,-,N/A,,Overcast,200,2013-02-21 21:55:00
3:55 PM,34.0,23.0,64,29.97,10.0,SSW,9.2,-,N/A,,Overcast,210,2013-02-21 22:55:00
4:55 PM,32.0,25.0,75,29.97,10.0,SSW,6.9,-,N/A,,Overcast,210,2013-02-21 23:55:00
5:55 PM,30.9,26.1,82,29.96,10.0,SSE,5.8,-,N/A,,Overcast,150,2013-02-22 00:55:00
6:31 PM,30.2,28.4,93,29.87,7.0,South,11.5,19.6,0.00,Snow,Light Snow,170,2013-02-22 01:31:00
6:55 PM,30.0,28.0,92,29.96,7.0,South,11.5,-,0.00,Snow,Light Snow,170,2013-02-22 01:55:00
7:07 PM,30.2,28.4,93,29.87,7.0,South,11.5,-,0.00,,Overcast,170,2013-02-22 02:07:00
7:55 PM,30.9,28.0,89,29.97,9.0,South,9.2,-,0.00,,Overcast,170,2013-02-22 02:55:00
8:55 PM,30.9,28.0,89,29.97,10.0,South,6.9,-,N/A,,Overcast,170,2013-02-22 03:55:00
9:55 PM,30.9,27.0,85,29.97,10.0,SE,5.8,-,N/A,,Overcast,130,2013-02-22 04:55:00
10:55 PM,30.9,27.0,85,29.98,10.0,SW,3.5,-,N/A,,Overcast,220,2013-02-22 05:55:00
11:55 PM,30.0,26.1,85,29.98,10.0,South,4.6,-,N/A,,Overcast,170,2013-02-22 06:55:00